Location: West Chester
(39.9610°N, 75.6060°W)
Time: 19:41:37
(UTC-04:00)

ARIANE 6 FM1 Upper Stage - Pass Details

Date: 23 September 2024
Orbit: 563 x 594 km, 62.0° (Epoch: 11 October)

Event Time Altitude Azimuth Distance (km) Brightness Sun altitude
Exits shadow 05:18:32 22° 199° (SSW) 1,303 4.2 -18.4°
Drops below altitude 10° 05:20:31 10° 179° (S) 1,926 5.2 -18.1°
Sets 05:22:56 0° 169° (S) 2,821 6.2 -17.6°
